Location: *
(51.1248°S, 108.4023°W)
Time: 11:15:33
(UTC+00:00)

N. Korean satellite - Visible Passes

Search period start: 28 September 2021 00:00
Search period end: 08 October 2021 00:00
Orbit: 449 x 498 km, 97.3° (Epoch: 27 September)

Date Brightness Start Highest point End Pass type
(mag) Time Alt. Az. Time Alt. Az. Time Alt. Az.
28 Sep 9.6 10:25:45 10° ENE 10:28:26 19° ESE 10:31:07 10° SSE visible
28 Sep 6.9 11:57:47 10° N 12:01:22 46° W 12:04:59 10° SSW visible
29 Sep 10.2 09:59:55 10° ESE 10:00:55 11° ESE 10:01:54 10° SE visible
29 Sep 6.7 11:29:47 10° NNE 11:33:30 86° E 11:37:15 10° SSW visible
30 Sep 9.8 01:57:28 10° SSW 01:59:44 16° WSW 02:01:57 10° W visible
30 Sep 8.0 11:02:12 10° NE 11:05:44 42° ESE 11:09:16 10° S visible
01 Oct 9.3 10:35:05 10° ENE 10:38:03 23° ESE 10:41:01 10° SSE visible
02 Oct 10.0 10:08:40 10° E 10:10:27 13° ESE 10:12:15 10° SSE visible
02 Oct 6.5 11:39:29 10° N 11:43:11 74° WNW 11:46:53 10° SSW visible
03 Oct 10.0 02:07:33 10° SSW 02:09:15 13° WSW 02:10:54 10° W visible
03 Oct 7.5 11:11:43 10° NNE 11:15:20 54° ESE 11:18:57 10° S visible
04 Oct 8.9 10:44:23 10° NE 10:47:34 28° ESE 10:50:45 10° S visible
05 Oct 9.9 10:17:37 10° E 10:19:54 16° ESE 10:22:10 10° SSE visible
05 Oct 6.7 11:49:07 10° N 11:52:44 57° W 11:56:23 10° SSW visible
06 Oct 10.4 02:17:56 10° SW 02:18:38 10° WSW 02:19:19 10° WSW visible
06 Oct 7.0 11:21:10 10° NNE 11:24:49 70° ESE 11:28:29 10° S visible
07 Oct 8.5 10:53:38 10° NE 10:56:59 34° ESE 11:00:20 10° S visible
